Weather History for KMEH - December, 2012

Change the Weather History Date:

Friday, December 28, 2012

  Actual Average Record
Temperature  
Mean Temperature 16 °F -  
Max Temperature 30 °F 34 °F 46 °F (2004)
Min Temperature 3 °F 19 °F 0 °F (2006)
Degree Days  
Heating Degree Days 48    
Moisture  
Dew Point 14 °F    
Average Humidity 83    
Maximum Humidity 92    
Minimum Humidity 72    
Precipitation  
Precipitation 0.00 in - - ()
Sea Level Pressure  
Sea Level Pressure 30.21 in    
Wind  
Wind Speed 0 mph (North)    
Max Wind Speed 0 mph    
Max Gust Speed -    
Visibility 10 miles    
Events      
Averages and records for this station are not official NWS values.
T = Trace of Precipitation, MM = Missing Value Source: NWS Daily Summary

Daily Weather History Graph

Daily Weather History Graph

Search for Another Location

Airport or City:

Trip Planner

Search our weather history database for the weather conditions in past years. The results will help you decide how hot, cold, wet, or windy it might be!

Date:

Astronomy

Dec. 28, 2012 Rise Set
Actual Time 7:33 AM PST 4:17 PM PST
Civil Twilight 6:59 AM PST 4:52 PM PST
Nautical Twilight 6:21 AM PST 5:29 PM PST
Astronomical Twilight 5:45 AM PST 6:05 PM PST
Moon 5:02 PM PST (12/28) 7:28 AM PST (12/28)
Length of Visible Light 9h 52m
Length of Day
8h 44m
Full, 100% of the Moon is Illuminated
Dec 28
Full
Jan 4
Last Quarter
Jan 11
New
Jan 18
First Quarter
Jan 26
Full

Hourly Weather History & Observations

Time (PST) Temp. Dew Point Humidity Pressure Visibility Wind Dir Wind Speed Gust Speed Precip Events Conditions
12:56 AM 17.1 °F 15.1 °F 92% 30.20 in 10.0 mi Calm Calm - N/A   Clear
1:56 AM 14.0 °F 10.9 °F 88% 30.22 in 10.0 mi Calm Calm - N/A   Clear
2:56 AM 10.9 °F 7.0 °F 84% 30.21 in 10.0 mi Calm Calm - N/A   Clear
3:56 AM 9.0 °F 6.1 °F 88% 30.22 in 8.0 mi Calm Calm - N/A   Clear
4:56 AM 7.0 °F 3.9 °F 87% 30.22 in 10.0 mi Calm Calm - N/A   Clear
5:56 AM 3.9 °F 1.0 °F 88% 30.23 in 10.0 mi Calm Calm - N/A   Clear
6:56 AM 5.0 °F 1.9 °F 87% 30.23 in 10.0 mi Calm Calm - N/A   Clear
7:56 AM 5.0 °F 1.9 °F 87% 30.24 in 10.0 mi Calm Calm - N/A   Clear
8:56 AM 7.0 °F 3.9 °F 87% 30.23 in 10.0 mi Calm Calm - N/A   Clear
9:56 AM 23.0 °F 19.0 °F 85% 30.20 in 10.0 mi Calm Calm - N/A   Clear
10:56 AM 27.0 °F 21.9 °F 81% 30.18 in 10.0 mi Calm Calm - N/A   Clear
11:56 AM 28.0 °F 21.9 °F 78% 30.18 in 10.0 mi Calm Calm - N/A   Clear
12:56 PM 28.9 °F 21.9 °F 75% 30.17 in 10.0 mi Calm Calm - N/A   Clear
1:56 PM 30.0 °F 21.9 °F 72% 30.17 in 10.0 mi Calm Calm - N/A   Clear
2:56 PM 28.9 °F 21.9 °F 75% 30.19 in 10.0 mi Calm Calm - N/A   Clear
3:56 PM 27.0 °F 19.9 °F 75% 30.20 in 10.0 mi Calm Calm - N/A   Clear
4:56 PM 24.1 °F 19.9 °F 84% 30.22 in 10.0 mi Calm Calm - N/A   Clear
5:56 PM 21.9 °F 18.0 °F 85% 30.23 in 10.0 mi Calm Calm - N/A   Clear
6:56 PM 21.9 °F 17.1 °F 82% 30.23 in 10.0 mi Calm Calm - N/A   Clear
7:56 PM 21.0 °F 17.1 °F 85% 30.23 in 10.0 mi Calm Calm - N/A   Clear
8:56 PM 21.0 °F 16.0 °F 81% 30.23 in 10.0 mi Calm Calm - N/A   Clear
9:56 PM 21.9 °F 16.0 °F 78% 30.19 in 10.0 mi Calm Calm - N/A   Clear
10:56 PM 19.9 °F 16.0 °F 85% 30.19 in 10.0 mi Calm Calm - N/A   Clear
11:56 PM 21.0 °F 16.0 °F 81% 30.19 in 10.0 mi Calm Calm - N/A   Clear